Location: Unspecified
(37.6100°N, 2.7800°W)
Time: 21:09:52
(UTC+00:00)

N. Korean satellite - Visible Passes

Search period start: 16 February 2019 00:00
Search period end: 26 February 2019 00:00
Orbit: 457 x 510 km, 97.2° (Epoch: 16 February)

Date Brightness Start Highest point End Pass type
(mag) Time Alt. Az. Time Alt. Az. Time Alt. Az.
16 Feb 6.7 06:17:48 10° NNE 06:21:17 73° E 06:24:43 10° S visible
16 Feb 9.7 18:25:22 10° SSW 18:28:16 21° W 18:31:09 10° NW visible
17 Feb 8.6 05:53:23 10° NNE 05:56:31 31° E 05:59:35 10° SSE visible
18 Feb 9.9 05:29:38 10° ENE 05:31:39 15° E 05:33:38 10° SE visible
19 Feb 10.4 18:46:05 10° WSW 18:47:37 12° W 18:49:07 10° WNW visible
20 Feb 7.1 06:12:20 10° NNE 06:15:45 60° E 06:19:08 10° S visible
20 Feb 9.5 18:19:41 10° SSW 18:22:44 25° W 18:25:46 10° NW visible
21 Feb 9.0 05:48:00 10° NE 05:50:56 26° E 05:53:52 10° SSE visible
22 Feb 10.1 05:24:32 10° ENE 05:26:04 12° E 05:27:35 10° ESE visible
23 Feb 10.2 18:40:04 10° SW 18:42:02 14° W 18:44:00 10° WNW visible
24 Feb 7.5 06:06:49 10° NNE 06:10:10 50° E 06:13:30 10° S visible
25 Feb 9.3 05:42:35 10° NE 05:45:20 22° E 05:48:04 10° SSE visible
